Hourly Weather Krosno

Today, 6 July, Monday

Time Temperature Precipitation Wind Pressure Humidity
00:00 +20°C° 0 mm 1 mps 735 mmHg 83%
01:00 +20°C° 0 mm 1 mps 735 mmHg 86%
02:00 +19°C° 0 mm 1 mps 735 mmHg 87%
03:00 +19°C° 0 mm 1 mps 734 mmHg 88%
04:00 +19°C° 0 mm 1 mps 734 mmHg 89%
05:00 +21°C° 0 mm 1 mps 734 mmHg 85%
06:00 +23°C° 0 mm 1 mps 734 mmHg 81%
07:00 +25°C° 0 mm 1 mps 734 mmHg 75%
08:00 +26°C° 0.2 mm 2 mps 734 mmHg 72%
09:00 +27°C° 0.2 mm 2 mps 734 mmHg 70%
10:00 +28°C° 0.2 mm 2 mps 733 mmHg 67%
11:00 +28°C° 0.7 mm 2 mps 733 mmHg 68%
12:00 +28°C° 0.7 mm 2 mps 732 mmHg 69%
13:00 +28°C° 0 mm 2 mps 732 mmHg 67%
14:00 +28°C° 0.9 mm 2 mps 732 mmHg 71%
15:00 +28°C° 0.9 mm 2 mps 731 mmHg 74%
16:00 +28°C° 0.9 mm 2 mps 731 mmHg 78%
17:00 +26°C° 1.1 mm 3 mps 731 mmHg 81%
18:00 +24°C° 1.1 mm 3 mps 731 mmHg 85%
19:00 +21°C° 1.1 mm 4 mps 732 mmHg 88%
20:00 +20°C° 0.7 mm 4 mps 732 mmHg 89%
21:00 +18°C° 0.7 mm 4 mps 732 mmHg 91%
22:00 +15°C° 0.7 mm 4 mps 732 mmHg 92%
23:00 +15°C° 1.8 mm 4 mps 733 mmHg 92%

Tomorrow, 7 July, Tuesday

Time Temperature Precipitation Wind Pressure Humidity
00:00 +15°C° 1.8 mm 4 mps 734 mmHg 93%
01:00 +14°C° 1.8 mm 3 mps 734 mmHg 93%
02:00 +14°C° 0.3 mm 3 mps 734 mmHg 93%
03:00 +13°C° 0.3 mm 3 mps 734 mmHg 92%
04:00 +13°C° 0.3 mm 3 mps 734 mmHg 92%
05:00 +13°C° 0.7 mm 3 mps 735 mmHg 92%
06:00 +13°C° 0.7 mm 3 mps 735 mmHg 91%
07:00 +13°C° 0.7 mm 3 mps 736 mmHg 91%
08:00 +14°C° 0.5 mm 4 mps 736 mmHg 88%
09:00 +14°C° 0.5 mm 4 mps 736 mmHg 85%
10:00 +15°C° 0.5 mm 5 mps 736 mmHg 82%
11:00 +16°C° 0.5 mm 5 mps 736 mmHg 79%
12:00 +16°C° 0.5 mm 5 mps 736 mmHg 76%
13:00 +17°C° 0.5 mm 5 mps 736 mmHg 73%
14:00 +17°C° 0.3 mm 5 mps 736 mmHg 73%
15:00 +17°C° 0.3 mm 5 mps 736 mmHg 73%
16:00 +17°C° 0.3 mm 5 mps 736 mmHg 73%
17:00 +17°C° 0 mm 4 mps 736 mmHg 75%
18:00 +16°C° 0 mm 3 mps 737 mmHg 78%
19:00 +14°C° 0 mm 3 mps 737 mmHg 81%
20:00 +13°C° 0 mm 2 mps 737 mmHg 84%
21:00 +12°C° 0 mm 1 mps 738 mmHg 86%
22:00 +11°C° 0 mm 1 mps 738 mmHg 89%
23:00 +10°C° 0 mm 1 mps 738 mmHg 89%

Day after tomorrow, 8 July, Wednesday

Time Temperature Precipitation Wind Pressure Humidity
00:00 +10°C° 0 mm 1 mps 738 mmHg 89%
01:00 +10°C° 0 mm 1 mps 738 mmHg 90%
02:00 +10°C° 0 mm 1 mps 738 mmHg 89%
03:00 +10°C° 0 mm 1 mps 738 mmHg 89%
04:00 +9°C° 0 mm 1 mps 738 mmHg 89%
05:00 +12°C° 0 mm 2 mps 738 mmHg 84%
06:00 +14°C° 0 mm 2 mps 738 mmHg 79%
07:00 +16°C° 0 mm 2 mps 738 mmHg 74%
08:00 +17°C° 0 mm 3 mps 738 mmHg 69%
09:00 +19°C° 0 mm 3 mps 738 mmHg 64%
10:00 +20°C° 0 mm 3 mps 738 mmHg 58%
11:00 +20°C° 0.1 mm 3 mps 738 mmHg 60%
12:00 +20°C° 0.1 mm 3 mps 738 mmHg 62%
13:00 +20°C° 0.1 mm 3 mps 738 mmHg 63%
14:00 +20°C° 0.1 mm 2 mps 738 mmHg 68%
15:00 +20°C° 0.1 mm 2 mps 738 mmHg 72%
16:00 +19°C° 0.1 mm 2 mps 738 mmHg 77%
17:00 +18°C° 0.2 mm 2 mps 738 mmHg 80%
18:00 +17°C° 0.2 mm 2 mps 738 mmHg 84%
19:00 +16°C° 0.2 mm 2 mps 737 mmHg 88%
20:00 +15°C° 0 mm 2 mps 737 mmHg 89%
21:00 +15°C° 0 mm 1 mps 738 mmHg 90%
22:00 +14°C° 0 mm 1 mps 738 mmHg 91%
23:00 +14°C° 0.6 mm 1 mps 738 mmHg 93%

9 July, Thursday

Time Temperature Precipitation Wind Pressure Humidity
00:00 +13°C° 0.6 mm 1 mps 738 mmHg 95%
01:00 +13°C° 0.6 mm 1 mps 738 mmHg 98%
02:00 +13°C° 0.2 mm 1 mps 738 mmHg 98%
03:00 +13°C° 0.2 mm 1 mps 738 mmHg 98%
04:00 +12°C° 0.2 mm 0 mps 739 mmHg 98%
05:00 +14°C° 0 mm 1 mps 739 mmHg 96%
06:00 +14°C° 0 mm 1 mps 739 mmHg 93%
07:00 +15°C° 0 mm 1 mps 740 mmHg 91%
08:00 +16°C° 0 mm 1 mps 740 mmHg 86%
09:00 +18°C° 0 mm 1 mps 740 mmHg 81%
10:00 +19°C° 0 mm 1 mps 741 mmHg 76%
11:00 +19°C° 0 mm 1 mps 741 mmHg 73%
12:00 +20°C° 0 mm 1 mps 740 mmHg 69%
13:00 +21°C° 0 mm 1 mps 740 mmHg 66%
14:00 +22°C° 0 mm 1 mps 740 mmHg 66%
15:00 +22°C° 0 mm 1 mps 740 mmHg 66%
16:00 +22°C° 0 mm 1 mps 740 mmHg 66%
17:00 +21°C° 0 mm 1 mps 740 mmHg 72%
18:00 +19°C° 0 mm 1 mps 739 mmHg 79%
19:00 +18°C° 0 mm 1 mps 739 mmHg 85%
20:00 +16°C° 0 mm 1 mps 739 mmHg 87%
21:00 +16°C° 0 mm 1 mps 740 mmHg 89%
22:00 +15°C° 0 mm 1 mps 740 mmHg 92%
23:00 +15°C° 0 mm 1 mps 739 mmHg 92%

10 July, Friday

Time Temperature Precipitation Wind Pressure Humidity
00:00 +15°C° 0 mm 2 mps 739 mmHg 93%
01:00 +14°C° 0 mm 2 mps 739 mmHg 94%
02:00 +15°C° 0 mm 2 mps 739 mmHg 94%
03:00 +15°C° 0 mm 2 mps 739 mmHg 94%
04:00 +15°C° 0 mm 2 mps 738 mmHg 94%
05:00 +17°C° 0 mm 3 mps 738 mmHg 90%
06:00 +18°C° 0 mm 3 mps 738 mmHg 86%
07:00 +20°C° 0 mm 4 mps 738 mmHg 83%
08:00 +22°C° 0.1 mm 4 mps 738 mmHg 78%
09:00 +23°C° 0.1 mm 5 mps 738 mmHg 74%
10:00 +26°C° 0.1 mm 6 mps 738 mmHg 70%
11:00 +26°C° 0.1 mm 6 mps 737 mmHg 67%
12:00 +27°C° 0.1 mm 6 mps 737 mmHg 64%
13:00 +28°C° 0.1 mm 6 mps 736 mmHg 62%
14:00 +28°C° 0 mm 6 mps 736 mmHg 63%
15:00 +28°C° 0 mm 6 mps 736 mmHg 65%
16:00 +27°C° 0 mm 6 mps 736 mmHg 67%
17:00 +26°C° 0 mm 6 mps 735 mmHg 70%
18:00 +24°C° 0 mm 6 mps 735 mmHg 73%
19:00 +23°C° 0 mm 5 mps 735 mmHg 76%
20:00 +22°C° 0 mm 5 mps 735 mmHg 75%
21:00 +22°C° 0 mm 5 mps 736 mmHg 74%
22:00 +22°C° 0 mm 4 mps 736 mmHg 73%
23:00 +20°C° 0 mm 4 mps 736 mmHg 81%

11 July, Saturday

Time Temperature Precipitation Wind Pressure Humidity
00:00 +19°C° 0 mm 3 mps 737 mmHg 88%
01:00 +17°C° 0 mm 2 mps 737 mmHg 96%
02:00 +18°C° 0 mm 1 mps 737 mmHg 96%
03:00 +18°C° 0 mm 1 mps 738 mmHg 96%
04:00 +18°C° 0 mm 1 mps 738 mmHg 96%
05:00 +16°C° 0.1 mm 2 mps 738 mmHg 95%
06:00 +16°C° 0.1 mm 3 mps 738 mmHg 94%
07:00 +14°C° 0.1 mm 4 mps 739 mmHg 94%
08:00 +14°C° 0.3 mm 4 mps 739 mmHg 93%
09:00 +13°C° 0.3 mm 4 mps 739 mmHg 93%
10:00 +13°C° 0.3 mm 4 mps 740 mmHg 93%
11:00 +12°C° 0.7 mm 3 mps 740 mmHg 93%
12:00 +13°C° 0.7 mm 2 mps 740 mmHg 94%
13:00 +13°C° 0.7 mm 2 mps 740 mmHg 95%
14:00 +13°C° 3.7 mm 2 mps 740 mmHg 96%
15:00 +13°C° 3.7 mm 2 mps 740 mmHg 96%
16:00 +12°C° 3.7 mm 2 mps 740 mmHg 97%
17:00 +12°C° 1.9 mm 1 mps 740 mmHg 97%
18:00 +12°C° 1.9 mm 1 mps 740 mmHg 97%
19:00 +12°C° 1.9 mm 1 mps 740 mmHg 96%
20:00 +12°C° 0 mm 1 mps 740 mmHg 97%
21:00 +11°C° 0 mm 1 mps 740 mmHg 97%
22:00 +10°C° 0 mm 1 mps 741 mmHg 97%
23:00 +10°C° 0 mm 1 mps 741 mmHg 96%
Show more